Location: *
(57.8420°S, 159.8600°W)
Time: 11:36:29
(UTC+00:00)

Meteor 2-3 Rocket - Pass Details

Date: 18 May 2021
Orbit: 841 x 886 km, 81.2° (Epoch: 22 June)

Event Time Altitude Azimuth Distance (km) Brightness Sun altitude
Rises 05:08:20 0° 360° (N) 3,418 6.9 -20.8°
Reaches altitude 10° 05:10:45 10° 3° (N) 2,495 6.2 -21.1°
Maximum altitude 05:16:20 62° 82° (E) 980 3.7 -21.8°
Drops below altitude 10° 05:22:03 10° 160° (SSE) 2,552 6.0 -22.6°
Enters shadow 05:22:21 - 161° (SSE) 2,666 6.1 -22.6°
Exits shadow 05:24:46 -1° 163° (SSE) 3,589 6.8 -23.0°
